NIMBUS 2 DEB, 28613

Orbit data source: Space-Track

NIMBUS 2 DEB, 28613 is space debris in SSO originally from a launch on Sun, 15 May 1966 UTC launched from the Air Force Western Test Range (AFWTR). Debris objects in space refer to the collection of defunct objects orbiting the Earth. Examples of debris include non-operational satellites, rocket bodies, and fragments generated from explosions, collisions, or faulty payload assembly.

Loading next visibility...
Identifier
28613, 1966-040AC
Orbit
SSO
Country
Flag of USUS
Related business
Manufacturer
Unknown
Mission
Spacecraft
Bus & Motor
Unknown
Mass
Unknown
Launch date (UTC)
1966-05-15 (60 years ago)
Launch vehicle
Unknown
Launch site
Air Force Western Test Range (AFWTR)
Object type
Payload
Rocket body
Debris
Shape & HBR
Unknown shape, 0.1 m
Radar Cross Section
Small (<0.1 m²)

Expand to show TLE details & history
Last TLE update: 4 days ago

TLE from 4 days ago
0 NIMBUS 2 DEB
1 28613U 66040AC  26258.69908860  .00001851  00000-0  20367-2 0  9990
2 28613 100.3818  68.1002 0041301 329.7133  91.6636 13.73324880655799
Epoch: 2026-09-15T16:46Z
TLE epoch observation values (Epoch: 2026-09-15T16:46:41.255Z)
Latitude
60.23959°
Longitude
163.1798°
Altitude
998.818 km
Speed
7.357 km/s
True Right ascension
03h 18m 03s
True Declination
60° 05' 46"
Sunlit
Object was in daylight at epoch
Visualization orbit readout
Latitude
Unknown
Longitude
Unknown
Altitude
Unknown
Speed
Unknown
Apparent Right ascension
Unknown
Apparent Declination
Unknown
Sunlit
N/A
Visualization observer readout
Local Sidereal Time
18:21:16
Azimuth
Unknown
Elevation
Unknown
Doppler factor
Unknown
Orbital elements
Apogee altitude
1,015.376 km
Perigee altitude
954.555 km
Semi-major axis
7,363.102 km
Eccentricity
0.00413
Inclination
100.3818°
RAAN
68.1002°
Arg. of periapsis
329.7133°
True anomaly
92.1366°
Mean anomaly
91.6636°
Eccentric anomaly
91.90011°
Mean motion
3.4352 °/min
Orbital period
104.8 mins
BSTAR
0.0020367
Loading maneuver chart data...
Computing Atmospheric mass density...
Loading historical data...
Loading historical data...
Loading historical data...
Loading historical data...
Loading historical data...
Loading historical data...
Loading historical data...

Documentation

Showing up to 5 results
|